Probability
71 45 48 68 58 19 0 0 0 0 0 0 0 0 3 3 6 6 6 10 13 16 19 29 45 32 32 32 32 29 35 45 42 45 42 45 45 42 39 42 42 45 45 45 52 61 58 45 35
45 32 45 55 16 0 0 0 0 0 0 0 0 0 3 3 6 3 6 16 10 13 19 19 48 39 39 39 39 35 39 42 39 39 39 29 35 39 32 35 35 39 32 39 35 45 39 35 29
45 23 45 32 0 0 0 0 0 0 0 0 0 0 3 3 6 10 6 10 13 19 19 29 48 42 35 39 35 35 39 35 35 32 35 35 29 26 32 35 32 29 32 26 23 26 26 23 19
32 39 16 6 0 0 0 0 0 0 0 0 0 0 3 10 10 10 6 6 16 16 23 26 39 35 35 35 35 35 39 29 35 32 32 35 23 26 29 35 35 32 26 26 19 23 19 23 13
32 32 0 0 0 0 0 0 0 0 0 0 3 6 6 10 10 6 6 6 10 16 16 19 35 35 29 32 26 29 29 32 35 32 26 23 23 32 29 29 29 26 32 26 16 16 19 26 26
35 16 0 0 0 0 0 0 0 0 0 3 3 3 13 13 6 10 3 10 10 16 19 26 42 35 29 29 23 23 29 32 39 32 32 29 32 29 26 13 16 13 10 13 10 13 13 16 19
10 0 0 0 0 0 0 0 0 0 0 0 3 3 16 16 10 10 10 10 10 16 16 13 16 26 42 42 26 26 29 32 35 29 26 26 23 23 29 16 10 6 6 10 6 13 13 13 19
6 0 0 0 0 0 0 0 0 0 0 0 0 3 13 16 13 6 10 13 16 16 16 16 10 10 10 13 32 29 26 32 23 23 19 23 29 23 19 19 13 10 6 10 6 10 16 16 19
0 0 0 3 3 0 0 0 0 0 0 0 0 10 16 13 6 10 10 10 13 13 13 13 13 10 10 6 13 23 26 13 16 13 19 23 6 6 10 6 10 16 13 10 13 13 13 16 16
0 3 3 3 3 0 0 0 0 0 0 3 10 13 13 13 10 10 6 10 10 13 6 3 10 13 10 6 10 10 10 10 6 10 6 6 6 6 6 6 10 10 19 13 10 10 13 13 3
0 0 0 0 0 0 0 3 0 3 0 0 6 10 10 6 6 10 6 6 3 0 3 3 3 6 3 6 6 6 6 10 3 3 3 3 3 3 6 6 3 6 6 6 3 6 6 3 6
0 0 0 0 0 0 0 3 0 0 0 0 6 10 6 6 3 6 3 3 0 0 0 3 0 0 3 6 6 3 3 3 3 3 3 3 3 3 3 3 3 6 6 6 3 3 3 3 3
0 0 0 0 0 0 0 0 0 3 0 3 6 10 6 3 3 0 0 0 0 0 0 0 0 0 3 3 3 3 3 3 3 3 3 0 0 0 3 3 3 6 6 3 3 3 3 3 3
0 0 0 0 0 0 0 0 0 0 0 3 6 10 3 3 3 3 0 0 0 0 0 3 0 3 3 3 3 0 0 0 0 0 0 0 0 0 0 0 0 0 0 3 0 0 3 3 3
0 0 0 0 0 0 0 0 3 0 3 3 6 3 3 3 6 6 3 0 0 0 0 0 0 0 0 0 0 0 0 0 0 0 0 0 0 0 0 0 0 3 3 0 0 0 3 6 6
0 0 0 0 0 0 0 0 3 0 3 3 3 3 3 3 3 6 6 3 0 0 0 0 0 0 0 0 0 0 0 0 0 0 0 0 0 0 0 0 0 3 3 0 0 0 0 0 3
0 0 0 0 0 0 0 0 0 0 0 0 0 3 3 3 3 3 6 3 3 3 0 0 0 0 0 0 0 0 0 0 0 0 0 0 0 0 0 0 0 0 0 0 0 0 0 0 0
0 0 0 0 0 0 0 0 0 0 0 0 0 0 3 3 3 3 6 3 3 3 3 0 0 0 0 0 0 0 0 0 0 0 0 0 0 0 0 0 0 0 0 0 0 0 0 0 0
0 0 0 0 0 0 0 0 0 0 0 0 0 0 3 3 0 3 3 6 3 3 3 0 0 0 0 0 0 3 3 3 3 3 3 3 3 0 0 0 3 3 3 0 0 0 0 0 0
0 0 0 0 0 0 0 0 0 0 0 0 0 0 0 3 3 3 3 6 3 3 3 3 3 0 0 3 3 3 3 3 3 3 3 3 3 3 3 3 3 6 0 0 0 0 0 0 0
0 0 0 0 0 0 0 0 0 0 0 0 0 0 0 3 3 6 3 6 3 3 3 3 3 3 3 3 0 3 3 3 3 3 3 3 3 3 3 3 3 3 3 3 3 0 0 0 0
0 0 0 0 0 0 0 0 0 0 0 0 0 0 0 3 0 0 3 3 3 3 3 3 3 3 3 6 3 3 3 3 3 3 3 3 3 3 3 3 3 3 3 3 3 0 0 0 0
0 0 0 0 0 0 0 0 0 0 0 0 0 0 0 0 3 3 0 0 0 0 3 3 3 3 6 6 3 3 3 3 3 3 3 3 3 3 3 3 3 3 3 3 3 0 0 0 0
0 0 0 0 0 0 0 0 0 0 0 0 0 0 0 3 6 3 0 0 0 0 3 3 6 6 6 6 6 3 3 3 3 3 3 3 3 3 6 3 3 6 0 3 3 0 0 0 0
0 0 0 0 0 0 0 0 0 0 0 0 0 0 3 3 6 6 3 3 3 6 3 6 10 6 6 6 3 3 0 0 0 0 0 0 0 3 3 3 3 3 3 0 0 0 0 0 0
0 0 0 0 0 0 0 0 0 0 0 0 0 0 0 0 3 3 3 3 6 6 6 3 6 6 3 3 3 3 3 0 0 0 0 0 0 0 3 3 3 3 3 3 3 0 0 0 0
0 0 0 0 0 0 0 0 0 0 0 0 0 0 0 0 3 3 3 3 3 3 13 10 10 6 6 3 3 3 3 0 0 0 0 0 0 0 0 3 3 3 3 3 3 6 0 0 0
0 0 0 0 0 0 0 0 0 0 0 0 0 0 0 0 3 3 3 3 3 6 13 16 10 10 6 6 3 3 3 3 3 3 0 0 0 0 0 0 3 3 3 3 3 3 6 0 0
0 0 0 0 0 0 0 0 0 0 0 0 0 0 0 0 3 3 3 3 3 6 13 13 13 10 10 6 3 3 3 3 3 3 3 3 0 0 0 0 3 3 3 3 3 3 3 3 0
0 0 0 0 0 0 0 0 0 0 0 0 0 0 0 3 3 6 0 3 3 3 6 10 6 10 6 6 6 3 3 3 3 3 0 3 3 0 0 0 3 3 3 3 3 3 3 3 3
Height
5860 5860 5861 5863 5864 5863 5863 5864 5864 5865 5865 5866 5866 5867 5868 5869 5870 5873 5870 5870 5870 5871 5871 5871 5872 5872 5872 5873 5873 5873 5873 5873 5873 5872 5872 5872 5872 5872 5872 5872 5871 5871 5871 5872 5872 5872 5872 5871 5871
5860 5860 5862 5862 5862 5862 5863 5863 5864 5864 5865 5865 5866 5867 5868 5868 5869 5869 5869 5869 5870 5870 5871 5871 5871 5871 5872 5872 5872 5872 5872 5872 5872 5872 5872 5871 5871 5871 5871 5870 5870 5870 5870 5870 5871 5871 5871 5870 5870
5859 5860 5861 5862 5861 5862 5862 5863 5863 5864 5864 5865 5865 5867 5867 5868 5868 5868 5868 5869 5869 5870 5870 5870 5870 5871 5871 5871 5871 5872 5872 5871 5871 5871 5871 5870 5870 5869 5869 5869 5869 5869 5869 5869 5869 5869 5869 5869 5869
5858 5859 5860 5861 5860 5861 5861 5862 5863 5863 5864 5864 5865 5866 5866 5867 5867 5867 5867 5868 5869 5869 5869 5869 5870 5870 5870 5870 5871 5871 5871 5871 5871 5870 5870 5869 5868 5868 5867 5867 5868 5868 5868 5868 5868 5868 5867 5867 5867
5856 5858 5859 5858 5859 5860 5860 5861 5862 5862 5863 5863 5865 5865 5865 5866 5866 5866 5867 5867 5868 5869 5869 5869 5869 5869 5869 5869 5870 5870 5870 5870 5870 5869 5869 5868 5868 5867 5867 5866 5866 5866 5866 5866 5866 5866 5866 5865 5865
5856 5856 5857 5857 5858 5859 5859 5860 5861 5861 5862 5863 5864 5865 5865 5866 5866 5866 5866 5867 5867 5868 5868 5868 5868 5868 5868 5869 5869 5869 5869 5869 5868 5868 5868 5867 5867 5866 5866 5866 5865 5865 5865 5865 5864 5864 5864 5864 5863
5855 5855 5856 5856 5857 5858 5858 5859 5860 5861 5861 5862 5863 5864 5864 5865 5865 5865 5865 5866 5866 5866 5867 5867 5867 5867 5867 5867 5868 5868 5868 5868 5868 5867 5867 5866 5865 5865 5865 5864 5864 5864 5863 5863 5863 5862 5862 5862 5861
5853 5854 5854 5855 5856 5857 5857 5858 5859 5860 5860 5861 5862 5863 5864 5864 5864 5864 5865 5865 5865 5866 5866 5866 5866 5866 5866 5866 5866 5866 5866 5866 5866 5866 5866 5865 5864 5864 5864 5863 5863 5862 5862 5861 5861 5861 5860 5860 5859
5852 5854 5853 5854 5855 5856 5856 5857 5858 5858 5859 5860 5861 5862 5863 5863 5863 5863 5864 5864 5864 5864 5865 5865 5865 5865 5865 5865 5865 5865 5865 5865 5865 5865 5865 5864 5864 5863 5863 5862 5861 5861 5860 5860 5859 5859 5858 5858 5858
5850 5851 5852 5852 5853 5854 5854 5855 5856 5857 5858 5859 5859 5860 5861 5861 5861 5862 5862 5863 5863 5863 5863 5863 5863 5863 5863 5863 5863 5863 5864 5863 5863 5863 5863 5863 5863 5862 5861 5861 5860 5860 5859 5858 5857 5857 5857 5856 5856
5848 5849 5850 5851 5852 5853 5853 5854 5854 5855 5856 5857 5858 5859 5859 5860 5860 5860 5861 5861 5861 5861 5862 5862 5862 5862 5862 5862 5862 5862 5862 5862 5861 5861 5861 5861 5861 5860 5860 5859 5859 5858 5857 5856 5856 5855 5855 5854 5854
5847 5848 5848 5849 5850 5851 5851 5852 5853 5854 5855 5855 5856 5857 5857 5858 5859 5859 5859 5859 5859 5860 5860 5860 5860 5860 5860 5860 5860 5860 5860 5860 5860 5859 5859 5859 5859 5858 5858 5857 5857 5856 5855 5855 5854 5853 5853 5852 5852
5845 5846 5847 5847 5848 5849 5849 5850 5851 5852 5852 5853 5854 5855 5855 5856 5857 5857 5858 5858 5858 5858 5858 5859 5859 5859 5859 5859 5859 5859 5859 5858 5858 5857 5857 5857 5857 5857 5856 5855 5854 5854 5853 5853 5852 5851 5850 5850 5849
5844 5844 5845 5845 5846 5847 5847 5848 5849 5849 5850 5851 5852 5853 5853 5854 5855 5855 5856 5856 5856 5856 5856 5857 5857 5857 5857 5857 5857 5857 5857 5857 5856 5856 5856 5855 5855 5854 5854 5853 5852 5851 5851 5850 5850 5849 5848 5848 5847
5842 5843 5843 5844 5844 5845 5846 5846 5846 5847 5847 5848 5849 5850 5851 5851 5852 5853 5853 5853 5854 5854 5854 5854 5854 5854 5855 5855 5855 5855 5855 5855 5854 5854 5854 5853 5853 5852 5852 5851 5850 5849 5848 5848 5847 5846 5845 5845 5844
5840 5841 5841 5842 5842 5842 5844 5844 5844 5844 5845 5846 5846 5847 5848 5849 5850 5850 5851 5851 5851 5852 5852 5852 5852 5852 5852 5853 5853 5853 5853 5852 5852 5852 5851 5851 5850 5850 5849 5848 5847 5846 5845 5845 5844 5843 5842 5842 5841
5838 5839 5839 5839 5839 5840 5841 5841 5842 5842 5842 5843 5844 5844 5845 5846 5847 5847 5848 5848 5849 5849 5850 5850 5850 5850 5850 5850 5850 5850 5850 5850 5850 5849 5849 5848 5847 5847 5846 5846 5845 5844 5843 5842 5841 5840 5839 5838 5837
5836 5836 5837 5837 5837 5837 5837 5838 5839 5839 5839 5840 5841 5841 5842 5843 5844 5844 5845 5845 5846 5846 5846 5847 5847 5847 5847 5847 5847 5848 5847 5847 5847 5846 5846 5845 5845 5844 5843 5843 5842 5841 5840 5839 5838 5837 5835 5834 5833
5833 5834 5834 5834 5834 5834 5834 5835 5835 5836 5837 5837 5838 5838 5839 5840 5841 5841 5841 5842 5842 5843 5843 5843 5844 5844 5844 5844 5844 5844 5844 5844 5843 5843 5842 5842 5842 5841 5840 5840 5838 5837 5837 5836 5834 5833 5832 5831 5829
5830 5830 5831 5831 5830 5830 5830 5831 5832 5832 5833 5834 5835 5835 5836 5837 5837 5838 5838 5839 5839 5839 5839 5840 5840 5840 5840 5841 5841 5841 5840 5840 5840 5839 5839 5838 5838 5837 5837 5836 5835 5834 5833 5832 5831 5829 5828 5826 5825
5826 5827 5827 5828 5827 5827 5827 5828 5829 5829 5830 5830 5831 5832 5832 5833 5834 5834 5835 5835 5835 5836 5836 5836 5836 5836 5836 5836 5836 5836 5836 5836 5836 5835 5835 5834 5834 5833 5833 5832 5831 5830 5829 5828 5826 5825 5823 5822 5820
5822 5823 5823 5823 5824 5823 5825 5824 5825 5825 5826 5827 5828 5828 5829 5829 5829 5830 5831 5831 5831 5831 5831 5831 5831 5831 5831 5831 5831 5831 5831 5831 5831 5831 5830 5830 5829 5829 5828 5827 5826 5825 5824 5823 5822 5820 5818 5817 5815
5818 5818 5819 5819 5819 5820 5821 5821 5822 5821 5822 5823 5823 5824 5825 5825 5825 5826 5826 5826 5826 5827 5827 5827 5827 5826 5826 5826 5826 5826 5826 5826 5826 5826 5825 5825 5824 5823 5823 5822 5821 5820 5819 5818 5816 5815 5813 5811 5809
5814 5815 5815 5815 5816 5816 5817 5817 5818 5818 5818 5819 5820 5820 5821 5821 5821 5821 5822 5822 5822 5822 5822 5822 5822 5821 5821 5821 5820 5820 5820 5820 5820 5820 5820 5819 5819 5818 5817 5816 5815 5814 5813 5812 5811 5809 5807 5805 5803
5810 5812 5812 5812 5812 5813 5814 5813 5814 5814 5815 5814 5815 5816 5816 5816 5817 5817 5817 5817 5817 5817 5817 5817 5817 5816 5816 5815 5815 5814 5814 5813 5813 5813 5813 5813 5813 5812 5811 5810 5809 5808 5807 5806 5804 5803 5801 5799 5797
5806 5808 5809 5809 5809 5810 5810 5809 5811 5810 5810 5810 5811 5811 5811 5812 5812 5812 5812 5812 5812 5812 5812 5812 5811 5811 5810 5809 5809 5808 5808 5807 5807 5807 5807 5806 5806 5806 5805 5804 5803 5802 5801 5800 5798 5796 5794 5792 5790
5802 5803 5804 5805 5805 5805 5805 5806 5806 5806 5805 5806 5806 5806 5807 5807 5807 5807 5807 5807 5807 5807 5806 5806 5805 5805 5804 5803 5803 5802 5801 5800 5800 5800 5800 5800 5799 5799 5799 5798 5797 5796 5794 5793 5791 5789 5787 5785 5783
5798 5798 5800 5800 5800 5800 5802 5801 5801 5801 5801 5801 5801 5801 5801 5801 5801 5802 5802 5802 5801 5801 5800 5800 5799 5799 5798 5797 5797 5796 5795 5794 5794 5793 5793 5793 5792 5792 5792 5791 5790 5788 5787 5786 5784 5782 5780 5779 5777
5793 5794 5794 5795 5796 5796 5796 5798 5796 5796 5796 5796 5796 5796 5796 5796 5796 5796 5796 5796 5796 5795 5795 5794 5793 5793 5792 5791 5790 5789 5789 5788 5787 5787 5786 5786 5785 5785 5784 5783 5782 5781 5779 5778 5777 5775 5774 5772 5770
5789 5789 5790 5791 5791 5791 5791 5794 5791 5791 5791 5791 5790 5790 5790 5790 5790 5790 5790 5789 5789 5789 5788 5787 5787 5786 5786 5785 5784 5783 5783 5782 5781 5780 5779 5779 5778 5777 5776 5775 5774 5773 5772 5770 5769 5768 5767 5765 5763
Wind_Speed
3 4 4 4 4 5 4 4 5 5 6 6 6 6 6 5 5 5 5 5 5 5 5 5 5 5 5 4 4 4 3 3 3 3 3 4 5 5 6 6 7 7 7 7 7 7 7 8 8
4 5 5 5 5 5 4 5 5 6 6 7 7 7 6 6 6 6 6 7 6 6 6 5 5 5 5 5 5 5 4 4 4 4 5 5 6 6 7 7 7 7 7 8 8 8 8 8 9
5 6 6 6 6 5 5 5 5 6 6 7 7 7 6 6 7 7 7 7 7 6 6 6 6 6 5 5 5 5 5 5 5 6 6 7 7 7 7 7 7 6 7 7 8 9 9 9 10
6 6 6 6 6 6 6 6 6 6 6 6 6 6 6 6 6 7 7 7 7 7 7 6 6 6 6 6 6 6 6 6 6 7 7 7 7 7 7 7 7 6 7 7 8 9 10 10 10
7 7 6 6 7 6 6 7 7 7 6 6 6 6 6 6 6 7 7 7 7 7 7 6 6 6 6 6 6 7 6 6 7 7 7 7 7 7 7 7 7 7 7 8 8 9 9 10 10
7 8 6 7 7 6 7 7 8 7 7 7 6 6 6 6 6 6 7 7 6 7 7 7 7 6 6 7 7 7 7 7 7 7 7 7 7 7 7 7 8 8 8 8 9 9 9 9 10
7 7 7 7 7 7 8 7 8 8 7 7 7 6 6 7 7 7 7 7 6 6 7 7 7 7 8 7 8 7 7 7 7 7 7 6 6 7 7 8 8 9 9 9 9 10 10 10 11
8 8 7 7 8 8 8 8 8 8 8 8 7 7 7 7 7 7 8 8 8 7 8 8 8 9 9 8 8 8 8 8 8 8 8 7 6 7 7 8 8 9 9 9 9 10 10 10 10
8 8 8 9 9 9 9 9 9 9 9 8 8 8 8 8 8 8 9 9 8 8 8 8 8 8 9 9 9 9 9 9 9 9 9 8 8 7 7 8 8 9 10 10 10 10 10 10 10
8 8 9 9 9 9 10 10 10 10 10 10 9 8 9 9 9 9 9 9 9 10 10 9 8 8 9 9 9 9 9 9 9 9 9 9 9 9 9 8 9 9 10 10 10 10 10 11 11
8 9 9 9 9 9 11 11 11 11 11 11 10 9 10 10 10 10 10 10 10 10 10 10 9 9 9 9 9 9 9 10 9 9 9 9 9 9 10 9 9 10 10 10 11 11 11 11 11
8 9 10 10 10 10 11 11 12 12 12 12 11 10 10 10 11 11 11 11 11 10 10 10 9 9 9 9 9 10 10 10 10 9 9 9 10 10 10 10 11 10 11 11 11 11 12 12 12
8 9 10 11 11 11 12 11 11 11 11 11 11 11 11 11 11 11 11 11 11 10 10 10 10 10 10 10 10 9 10 10 10 10 9 10 10 11 11 12 12 11 11 12 12 12 12 12 12
9 9 10 11 11 11 12 11 11 11 12 12 12 12 12 12 12 12 11 11 11 11 11 11 11 11 11 11 11 10 11 10 10 10 10 11 11 11 12 12 12 11 12 12 12 12 12 12 12
10 10 10 10 11 11 11 11 12 12 12 13 13 13 12 12 12 12 12 11 11 11 11 11 11 12 12 12 12 12 12 12 11 12 13 13 13 13 13 13 12 12 12 12 12 12 13 13 14
10 10 11 10 11 12 12 11 12 12 13 13 13 13 13 13 13 13 13 12 12 12 12 12 12 13 13 13 13 13 12 13 13 13 14 14 14 13 14 13 13 12 12 12 13 13 14 15 15
10 10 11 12 12 13 13 11 12 12 13 13 13 13 13 13 13 14 14 14 13 13 14 14 13 14 14 14 14 14 14 14 14 14 15 15 15 14 14 14 14 14 14 14 14 15 15 16 16
10 11 11 12 13 13 14 13 12 12 14 13 13 13 14 14 14 14 15 15 15 15 15 15 15 15 15 15 15 15 15 15 15 16 15 15 15 15 15 15 15 15 15 15 15 16 16 17 17
11 11 12 13 13 14 14 14 13 13 14 14 14 14 15 15 15 16 16 17 16 16 16 16 16 16 16 16 16 16 17 17 17 17 16 16 16 16 16 16 16 16 16 16 16 17 17 17 18
13 13 13 14 14 14 15 14 13 14 14 14 15 16 16 16 16 15 17 17 18 17 17 17 18 18 17 17 17 18 18 18 18 18 17 17 18 17 17 17 17 17 17 17 17 18 18 18 19
14 14 14 14 14 14 15 14 13 13 14 15 15 16 16 16 16 16 17 18 18 18 18 18 18 19 19 18 19 19 19 19 19 19 19 18 19 18 18 18 18 18 19 19 19 19 19 20 20
14 14 14 15 14 13 13 15 14 14 14 16 16 17 16 16 17 17 17 18 19 19 19 19 20 20 20 20 20 20 20 20 20 20 20 20 20 19 20 20 19 19 20 20 20 20 21 21 21
15 14 15 15 15 14 13 15 14 15 15 16 16 17 17 18 18 18 18 19 20 20 19 20 20 20 19 20 21 21 21 20 21 21 21 21 21 21 21 20 20 20 21 21 21 22 22 22 22
14 15 14 14 14 15 14 16 16 15 16 17 17 17 17 18 19 19 19 19 20 20 19 20 21 21 20 21 21 21 22 22 22 21 21 22 22 22 22 21 21 21 22 22 22 23 23 23 23
14 14 14 14 14 15 16 17 18 17 17 18 18 18 17 18 19 19 19 19 19 19 19 21 21 21 21 22 22 23 23 23 23 23 22 22 22 22 23 22 22 22 23 23 24 24 24 24 24
16 14 14 15 15 15 16 19 19 18 19 19 18 19 18 18 19 19 20 20 20 20 20 21 21 22 22 22 23 23 24 24 24 24 23 23 23 23 23 23 23 24 24 24 25 25 25 26 25
16 16 16 16 16 16 16 19 20 19 20 20 19 20 20 20 20 20 20 20 21 21 20 20 21 22 22 23 23 23 24 24 24 24 24 23 24 24 24 24 25 25 25 26 26 26 26 26 26
17 17 16 17 17 17 17 18 20 19 20 20 20 20 20 20 20 20 21 21 21 21 21 21 21 21 22 22 23 23 23 23 23 23 24 24 24 25 25 26 26 26 27 27 27 27 27 27 26
16 17 18 18 18 18 18 19 19 20 20 20 21 21 21 21 21 21 22 23 23 22 21 22 22 22 22 22 22 22 22 22 23 23 24 24 25 26 26 27 28 28 28 28 27 27 27 27 27
16 17 18 19 19 19 20 20 19 20 21 21 22 22 21 21 22 22 23 23 24 24 24 24 24 24 23 23 23 23 23 23 23 24 24 25 25 26 26 27 28 28 28 27 27 27 27 27 28
Wind_Direction
219 217 211 214 222 231 243 243 235 230 232 233 236 240 243 246 250 248 241 236 238 242 250 254 254 250 257 260 258 256 249 251 271 275 265 267 276 285 290 288 280 276 275 273 272 276 281 282 279
219 221 224 224 228 231 238 244 244 238 237 241 240 240 242 247 250 247 243 240 241 245 253 253 256 254 256 262 264 257 251 260 272 279 276 282 287 293 295 292 285 282 280 280 275 273 277 280 278
225 225 229 233 236 244 242 240 238 239 240 245 242 242 248 248 250 251 248 245 244 246 249 251 258 256 256 262 265 262 257 264 273 281 285 290 294 295 296 295 293 290 287 289 286 281 280 281 280
227 229 231 233 244 250 246 245 231 232 237 240 241 242 251 253 250 247 251 246 246 246 249 253 258 258 256 256 261 260 263 265 276 284 292 295 297 295 293 293 296 294 294 291 288 286 289 285 281
228 230 232 236 242 247 247 241 233 232 233 237 240 242 249 254 255 252 249 247 249 247 247 251 255 257 257 258 262 262 265 273 283 287 295 296 296 293 291 293 293 294 294 292 289 288 290 289 283
229 229 229 234 235 235 240 238 236 235 240 243 245 244 247 251 251 256 249 250 250 253 252 247 253 258 263 262 266 265 269 278 282 285 290 293 291 293 293 294 295 294 293 291 291 291 293 292 289
232 226 226 230 230 234 239 240 245 245 244 248 249 248 248 250 252 255 254 253 252 255 255 255 258 259 262 265 269 269 273 277 278 285 292 293 293 295 295 295 296 294 293 291 289 289 293 294 290
231 227 223 226 232 236 241 244 245 247 247 248 250 250 252 252 255 257 260 261 261 263 263 268 267 267 268 270 272 273 275 279 278 283 288 290 291 292 292 294 296 295 296 296 292 291 292 292 288
230 228 228 231 236 241 243 245 246 247 249 250 253 253 254 257 259 260 261 262 264 265 267 268 274 276 273 272 273 276 280 282 281 283 286 289 293 291 293 295 295 294 298 299 295 291 291 289 288
230 232 236 240 245 246 248 246 247 248 248 250 253 255 258 258 257 261 262 263 267 270 272 274 274 274 273 274 276 276 279 281 279 279 283 285 288 291 292 296 295 296 297 297 295 293 293 293 290
234 237 242 245 248 249 250 247 248 251 249 250 251 252 255 258 258 262 265 267 269 271 274 278 278 280 283 280 280 279 280 281 279 278 280 283 288 290 289 292 294 297 298 297 298 297 296 294 290
239 242 246 250 252 254 253 250 250 253 251 249 250 254 255 256 259 262 264 268 270 271 272 274 274 280 287 286 289 285 280 279 279 279 282 285 287 289 290 293 296 298 301 299 302 303 301 294 289
248 248 249 251 254 256 256 254 254 256 254 251 251 252 257 259 262 263 263 266 269 270 270 271 271 276 284 287 289 292 291 282 281 285 284 285 287 288 292 294 297 297 299 300 301 300 299 298 296
253 252 256 258 257 258 258 258 257 256 255 254 251 252 257 260 260 261 262 263 266 269 271 273 272 274 281 285 288 290 293 289 288 288 287 288 291 291 293 296 295 296 298 298 298 297 296 295 294
255 254 258 260 261 259 260 259 257 255 256 255 252 253 257 261 262 262 263 262 265 268 270 273 273 275 279 280 284 285 287 290 291 294 293 293 294 294 296 296 296 296 296 299 299 298 296 294 294
257 259 262 264 265 264 263 262 260 257 255 257 255 255 258 259 261 262 262 263 265 269 270 272 275 276 277 278 281 282 287 289 291 292 295 296 298 297 295 294 295 295 296 298 299 300 299 297 295
261 263 266 267 266 266 266 265 262 259 257 257 257 256 257 258 260 261 261 262 265 268 270 272 274 276 276 278 280 282 286 285 288 289 291 293 295 297 297 296 294 295 297 297 297 298 298 297 296
263 264 264 266 267 269 267 266 262 257 256 256 256 256 258 259 260 262 261 263 266 268 270 271 272 274 276 278 280 281 283 283 285 288 289 291 292 293 296 299 299 298 300 299 297 298 299 297 296
259 262 263 266 268 269 267 262 262 260 257 255 254 256 259 261 261 263 265 266 268 268 270 272 272 274 276 277 278 279 282 284 286 286 290 290 290 290 295 298 299 298 298 298 299 298 298 297 296
259 261 260 264 269 267 263 261 261 262 260 258 254 255 260 262 263 266 268 268 269 269 270 272 274 275 276 275 275 277 280 283 286 287 289 290 291 292 294 295 296 297 296 296 298 298 298 298 296
258 259 259 263 267 269 268 266 265 263 262 262 260 259 261 262 264 267 269 270 271 271 272 274 275 276 276 276 275 277 279 281 284 286 287 289 291 291 291 293 294 295 295 296 297 298 298 298 297
256 256 257 258 260 265 268 271 269 270 270 267 266 265 265 264 264 266 269 270 271 271 272 273 275 276 276 276 277 277 277 280 282 283 284 287 289 290 291 291 292 294 295 296 297 297 298 298 297
257 256 257 259 259 261 267 273 273 271 269 271 270 270 269 268 270 270 270 270 270 270 272 273 275 275 276 276 276 276 277 279 281 281 282 284 287 289 290 290 291 292 294 296 298 298 298 298 298
256 257 257 260 263 261 265 272 275 272 272 273 269 268 268 270 271 271 270 269 269 272 274 274 276 277 277 277 278 278 278 279 280 280 280 282 285 287 289 288 290 291 293 295 297 298 297 297 297
253 256 257 258 265 271 270 272 274 276 274 274 271 268 267 272 272 270 270 269 270 271 274 276 276 277 278 278 278 281 281 279 279 278 279 280 283 286 287 287 289 291 293 294 296 296 297 297 297
253 253 256 258 259 265 269 273 277 274 273 275 275 274 271 272 272 271 270 270 271 272 274 277 278 277 278 279 280 281 281 280 279 279 279 280 282 284 286 287 288 290 292 293 294 294 296 297 296
255 252 254 260 263 265 268 273 279 276 274 275 275 272 272 270 271 271 271 272 274 275 275 277 278 279 279 280 281 282 281 280 279 279 280 281 281 283 285 286 287 288 290 292 292 292 294 296 295
259 255 253 257 263 262 266 268 274 275 274 275 276 273 272 272 270 271 272 274 276 277 277 277 278 280 281 282 282 282 282 280 279 280 281 281 279 281 284 285 287 287 289 291 292 292 292 294 294
264 259 255 257 262 265 266 268 271 271 273 274 275 277 276 273 272 271 272 274 275 276 277 279 280 281 282 282 282 282 282 282 281 281 282 282 279 280 283 285 287 288 289 290 290 291 292 292 292
268 264 259 258 262 264 266 269 268 268 271 274 276 276 276 276 275 275 275 274 275 276 277 278 279 281 282 282 282 282 282 282 283 284 284 284 283 282 284 286 288 288 288 288 288 289 290 291 292